[ hide orbit diagram ]
For accurate long-term ephemerides, please instead use our Horizons system.This orbit viewer was implemented using two-body methods, and hence should not be used for determining accurate long-term trajectories (over several years or decades) or planetary encounter circumstances.
Orbital Elements at Epoch 2459200.5 (2020-Dec-17.0) TDB
Reference: JPL 18 (heliocentric ecliptic J2000)
Element | Value | Uncertainty (1-sigma) | Units |
e | .2498158786109728 | 4.6905e-08 | |
a | 2.340631259172767 | 1.1939e-08 | au |
q | 1.755904404658215 | 1.0772e-07 | au |
i | 3.282662224369835 | 5.283e-06 | deg |
node | 87.39051483499387 | 9.0456e-05 | deg |
peri | 278.8298365090664 | 9.1139e-05 | deg |
M | 88.76453998195964 | 1.5326e-05 | deg |
tp | 2458877.996127437808 (2020-Jan-29.49612744) | 5.3909e-05 | TDB |
period | 1307.970436685476 3.58 | 1.0007e-05 2.74e-08 | d yr |
n | .2752355786513608 | 2.1058e-09 | deg/d |
Q | 2.92535811368732 | 1.4921e-08 | au |
|
| | Orbit Determination Parameters
Additional Information
|
[ show covariance matrix ]
Physical Parameter Table
Parameter |
Symbol |
Value |
Units |
Sigma |
Reference |
Notes |
absolute magnitude |
H |
16.2 |
|
n/a |
MPO436474 |
|
|
101435 (1998 VC36) Discovered 1998-Nov-14 by LINEAR at Socorro |
Reference: 20051019/Numbers.arc | Last Updated: 2005-10-26 |
|
[ hide close-approach data ]
Close-Approach Data ...sorted by Date/Time (TDB)
|
Date/Time (TDB) |
Time Uncertainty (days_HH:MM) |
Body |
Nominal Distance (au) |
Minimum Distance (au) |
Maximum Distance (au) |
V-relative (km/s) |
V-infinity (km/s) |
JD (TDB) |
Time Uncertainty (minutes) |
Semi-major axis (km) |
Semi-minor axis (km) |
range-LOV angle (deg) |
N-sigma |
BP |
Orbit Ref. |
Reference |
Modified |
2189-Jul-19 10:02 |
00:04 |
Hebe |
0.0493131670850793 |
0.0493017476224027 |
0.049324606070947 |
3.81843873608966 |
3.81843870307485 |
2520775.917729207 |
3.89212198268967 |
1651.54113863586 |
41.1244368926463 |
69.8758174913417 |
168323.105015443 |
T |
18 |
CATAB v2.0f-lin.ifort 2021-Feb-24 08:28:35 |
2021-Feb-24 08:28 |
|
|